TimeMDT,TemperatureF,Dew PointF,Humidity,Sea Level PressureIn,VisibilityMPH,Wind Direction,Wind SpeedMPH,Gust SpeedMPH,PrecipitationIn,Events,Conditions,WindDirDegrees,DateUTC
12:53 AM,17.1,9.0,71,30.35,10.0,NNE,6.9,-,N/A,,Clear,20,2013-03-24 06:53:00
1:53 AM,16.0,10.0,77,30.34,10.0,North,5.8,-,N/A,,Clear,350,2013-03-24 07:53:00
2:53 AM,14.0,9.0,80,30.34,10.0,NNW,4.6,-,N/A,,Partly Cloudy,330,2013-03-24 08:53:00
3:53 AM,15.1,9.0,77,30.32,10.0,SW,4.6,-,N/A,,Clear,220,2013-03-24 09:53:00
4:53 AM,12.0,8.1,84,30.34,10.0,North,3.5,-,N/A,,Clear,10,2013-03-24 10:53:00
5:53 AM,10.9,5.0,77,30.37,10.0,NNW,3.5,-,N/A,,Clear,330,2013-03-24 11:53:00
6:53 AM,12.9,8.1,81,30.38,10.0,North,4.6,-,N/A,,Mostly Cloudy,360,2013-03-24 12:53:00
7:53 AM,14.0,9.0,80,30.40,10.0,WNW,3.5,-,N/A,,Mostly Cloudy,290,2013-03-24 13:53:00
8:53 AM,16.0,10.0,77,30.41,10.0,Calm,Calm,-,N/A,,Mostly Cloudy,0,2013-03-24 14:53:00
9:53 AM,19.0,9.0,65,30.42,10.0,NNW,3.5,-,N/A,,Mostly Cloudy,340,2013-03-24 15:53:00
10:53 AM,21.0,8.1,57,30.42,10.0,Variable,5.8,-,N/A,,Mostly Cloudy,0,2013-03-24 16:53:00
11:53 AM,21.9,8.1,55,30.42,10.0,East,6.9,-,N/A,,Partly Cloudy,100,2013-03-24 17:53:00
12:53 PM,28.0,8.1,43,30.38,10.0,North,11.5,-,N/A,,Partly Cloudy,10,2013-03-24 18:53:00
1:53 PM,30.0,7.0,38,30.37,10.0,ENE,9.2,-,N/A,,Partly Cloudy,70,2013-03-24 19:53:00
2:53 PM,33.1,3.9,29,30.35,10.0,NE,12.7,18.4,N/A,,Partly Cloudy,40,2013-03-24 20:53:00
3:53 PM,33.1,3.9,29,30.35,10.0,NE,12.7,18.4,N/A,,Partly Cloudy,40,2013-03-24 21:53:00
4:53 PM,32.0,8.1,37,30.37,10.0,NE,8.1,-,N/A,,Partly Cloudy,40,2013-03-24 22:53:00
5:53 PM,30.9,8.1,38,30.38,10.0,ENE,10.4,-,N/A,,Partly Cloudy,60,2013-03-24 23:53:00
6:53 PM,28.0,9.0,45,30.38,10.0,ENE,11.5,-,N/A,,Partly Cloudy,70,2013-03-25 00:53:00
7:53 PM,25.0,9.0,51,30.39,10.0,East,8.1,-,N/A,,Clear,80,2013-03-25 01:53:00
8:53 PM,23.0,9.0,55,30.40,10.0,ESE,8.1,-,N/A,,Clear,110,2013-03-25 02:53:00
9:53 PM,23.0,8.1,53,30.39,10.0,SE,8.1,-,N/A,,Clear,140,2013-03-25 03:53:00
10:53 PM,21.9,9.0,58,30.38,10.0,Calm,Calm,-,N/A,,Clear,0,2013-03-25 04:53:00
11:53 PM,19.4,8.6,63,30.24,10.0,Calm,Calm,-,N/A,,Clear,0,2013-03-25 05:53:00